Winnipeg, Manitoba

12:01 PM CDT on April 25, 2017 (GMT -0500)
Winnipeg International Airport

Weather History for CYWG - June, 2014

Change the Weather History Date:

Thursday, June 5, 2014

  Actual Average Record
Temperature  
Mean Temperature 68 °F -  
Max Temperature 78 °F 75 °F 79 °F (2012)
Min Temperature 59 °F 52 °F 32 °F (2007)
Cooling Degree Days 4    
Growing Degree Days 18 (Base 50)    
Moisture  
Dew Point 55 °F    
Average Humidity 65    
Maximum Humidity 94    
Minimum Humidity 36    
Precipitation  
Precipitation 0.00 in 0.11 in - ()
Sea Level Pressure  
Sea Level Pressure 29.70 in    
Wind  
Wind Speed 9 mph ()    
Max Wind Speed 16 mph    
Max Gust Speed 24 mph    
Visibility 14.5 miles    
Events Rain    
Averages and records for this station are not official NWS values.
T = Trace of Precipitation, MM = Missing Value Source: Averaged Metar Reports

Daily Weather History Graph

Daily Weather History Graph

Search for Another Location

Airport or City:

Trip Planner

Search our weather history database for the weather conditions in past years. The results will help you decide how hot, cold, wet, or windy it might be!

Date:

Astronomy

Jun. 05, 2014 Rise Set
Actual Time 5:22 AM CDT 9:32 PM CDT
Civil Twilight 4:39 AM CDT 10:16 PM CDT
Nautical Twilight 3:37 AM CDT 11:18 PM CDT
Astronomical Twilight 1:59 AM CDT 12:55 AM CDT
Moon 1:13 PM CDT (6/5) 1:30 AM CDT (6/5)
Length of Visible Light 17h 36m
Length of Day
16h 10m
Waxing Crescent, 49% of the Moon is Illuminated
Jun 5
Waxing Crescent
Jun 5
First Quarter
Jun 12
Full
Jun 19
Last Quarter
Jun 27
New

Hourly Weather History & Observations

Time (CDT) Temp. Dew Point Humidity Pressure Visibility Wind Dir Wind Speed Gust Speed Precip Events Conditions
12:00 AM 60.8 °F 57.2 °F 88% 29.79 in 3.0 mi SSW 4.6 mph - N/A Rain Light Rain Showers
1:00 AM 59.0 °F 57.2 °F 94% 29.73 in 15.0 mi SE 9.2 mph - N/A   Mostly Cloudy
2:00 AM 60.8 °F 57.2 °F 88% 29.71 in 15.0 mi SSE 10.4 mph - N/A   Mostly Cloudy
3:00 AM 60.8 °F 59.0 °F 94% 29.70 in 15.0 mi South 16.1 mph - N/A   Overcast
4:00 AM 60.8 °F 57.2 °F 88% 29.70 in 15.0 mi South 10.4 mph - N/A   Mostly Cloudy
5:00 AM 59.0 °F 57.2 °F 94% 29.69 in 15.0 mi South 13.8 mph 20.7 mph N/A   Mostly Cloudy
6:00 AM 60.8 °F 57.2 °F 88% 29.70 in 15.0 mi South 10.4 mph - N/A   Mostly Cloudy
7:00 AM 60.8 °F 57.2 °F 88% 29.71 in 15.0 mi SSW 15.0 mph - N/A   Mostly Cloudy
8:00 AM 64.4 °F 59.0 °F 83% 29.71 in 15.0 mi SW 11.5 mph 19.6 mph N/A   Mostly Cloudy
9:00 AM 66.2 °F 57.2 °F 73% 29.72 in 15.0 mi SSW 12.7 mph - N/A   Mostly Cloudy
10:00 AM 69.8 °F 59.0 °F 68% 29.71 in 15.0 mi WSW 13.8 mph - N/A   Mostly Cloudy
11:00 AM 71.6 °F 59.0 °F 64% 29.70 in 15.0 mi South 12.7 mph - N/A   Scattered Clouds
12:00 PM 75.2 °F 57.2 °F 53% 29.70 in 15.0 mi WSW 12.7 mph - N/A   Scattered Clouds
1:00 PM 75.2 °F 55.4 °F 50% 29.70 in 15.0 mi WSW 10.4 mph - N/A   Scattered Clouds
2:00 PM 78.8 °F 55.4 °F 44% 29.69 in 15.0 mi West 12.7 mph - N/A   Partly Cloudy
3:00 PM 77.0 °F 51.8 °F 41% 29.70 in 15.0 mi WSW 9.2 mph 17.3 mph N/A   Scattered Clouds
4:00 PM 78.8 °F 53.6 °F 42% 29.69 in 15.0 mi West 13.8 mph 24.2 mph N/A   Scattered Clouds
5:00 PM 78.8 °F 53.6 °F 42% 29.67 in 15.0 mi NW 10.4 mph 20.7 mph N/A   Partly Cloudy
6:00 PM 78.8 °F 51.8 °F 39% 29.66 in 15.0 mi West 12.7 mph 19.6 mph N/A   Mostly Cloudy
7:00 PM 78.8 °F 50.0 °F 36% 29.68 in 15.0 mi NW 15.0 mph - N/A   Mostly Cloudy
8:00 PM 75.2 °F 51.8 °F 44% 29.70 in 15.0 mi West 9.2 mph - N/A   Mostly Cloudy
9:00 PM 69.8 °F 48.2 °F 46% 29.70 in 15.0 mi West 5.8 mph - N/A   Mostly Cloudy
10:00 PM 68.0 °F 50.0 °F 52% 29.71 in 15.0 mi West 11.5 mph - N/A   Mostly Cloudy
11:00 PM 64.4 °F 51.8 °F 64% 29.73 in 15.0 mi WSW 5.8 mph - N/A   Mostly Cloudy